This is the latest recevied weather packets stored in our database for station/object OE6ATD-13. If no packets are shown the sender has not sent any weather packets the latest 10 day(s).
| Time | Temp. | Humidity | Pressure | Rain* | Wind** | Luminosity | Snow |
|---|---|---|---|---|---|---|---|
| 1788705026 | 30° C | 35% | 1024.2 hPa | 0 mm | - | 374 W/m² | - |
| 1788704422 | 30° C | 35% | 1024.1 hPa | 0 mm | - | 406 W/m² | - |
| 1788703818 | 28.89° C | 36% | 1024.2 hPa | 0 mm | - | 439 W/m² | - |
| 1788703229 | 29.44° C | 35% | 1024.2 hPa | 0 mm | - | 469 W/m² | - |
| 1788702624 | 29.44° C | 35% | 1024.2 hPa | 0 mm | - | 504 W/m² | - |
| 1788702020 | 29.44° C | 35% | 1024.3 hPa | 0 mm | - | 539 W/m² | - |
| 1788701416 | 28.89° C | 35% | 1024.4 hPa | 0 mm | - | 565 W/m² | - |
| 1788700827 | 28.89° C | 36% | 1024.4 hPa | 0 mm | - | 594 W/m² | - |
| 1788700223 | 28.89° C | 36% | 1024.6 hPa | 0 mm | - | 624 W/m² | - |
| 1788699618 | 28.89° C | 36% | 1024.7 hPa | 0 mm | - | 647 W/m² | - |
| 1788699029 | 28.89° C | 37% | 1024.8 hPa | 0 mm | - | 670 W/m² | - |
| 1788698425 | 28.33° C | 38% | 1024.8 hPa | 0 mm | - | 691 W/m² | - |
| 1788697821 | 27.78° C | 37% | 1024.8 hPa | 0 mm | - | 709 W/m² | - |
| 1788697216 | 27.78° C | 38% | 1024.9 hPa | 0 mm | - | 730 W/m² | - |
| 1788696627 | 28.33° C | 37% | 1024.9 hPa | 0 mm | - | 751 W/m² | - |
| 1788696023 | 27.78° C | 39% | 1024.9 hPa | 0 mm | - | 764 W/m² | - |
| 1788695421 | 27.78° C | 39% | 1025.1 hPa | 0 mm | - | 781 W/m² | - |
| 1788694817 | 27.78° C | 39% | 1025.1 hPa | 0 mm | - | 802 W/m² | - |
| 1788694231 | 27.22° C | 41% | 1025.1 hPa | 0 mm | - | 802 W/m² | - |
| 1788693624 | 27.22° C | 41% | 1025.2 hPa | 0 mm | - | 810 W/m² | - |
| 1788693019 | 27.22° C | 41% | 1025.2 hPa | 0 mm | - | 818 W/m² | - |
| 1788692416 | 26.67° C | 42% | 1025.3 hPa | 0 mm | - | 815 W/m² | - |
| 1788691826 | 26.67° C | 42% | 1025.3 hPa | 0 mm | - | 817 W/m² | - |
| 1788691222 | 26.67° C | 44% | 1025.4 hPa | 0 mm | - | 817 W/m² | - |
| 1788690625 | 26.11° C | 44% | 1025.4 hPa | 0 mm | - | 813 W/m² | - |
* Rain latest hour (hover to see other rain measurements)
** Current wind speed in m/s (hover to see current wind gust speed)